Time,TemperatureF,DewpointF,PressureIn,WindDirection,WindDirectionDegrees,WindSpeedMPH,WindSpeedGustMPH,Humidity,HourlyPrecipIn,Conditions,Clouds,dailyrainin,SolarRadiationWatts/m^2,SoftwareType,DateUTC
2013-02-10 00:02:00,38.8,38.0,29.73,North,360,4.0,-999.0,98,-99.99,,,0.00,0,weatherlink.com 1.10,2013-02-10 00:02:00,
2013-02-10 00:17:00,38.7,38.0,29.72,NNE,25,3.0,-999.0,97,-99.99,,,0.01,0,weatherlink.com 1.10,2013-02-10 00:17:00,
2013-02-10 00:32:00,38.5,38.0,29.71,NNE,12,2.0,-999.0,98,-99.99,,,0.01,0,weatherlink.com 1.10,2013-02-10 00:32:00,
2013-02-10 00:47:00,38.3,38.0,29.71,NNE,15,4.0,-999.0,98,-99.99,,,0.01,0,weatherlink.com 1.10,2013-02-10 00:47:00,
2013-02-10 01:02:00,38.2,38.0,29.70,NNE,30,5.0,-999.0,98,-99.99,,,0.01,0,weatherlink.com 1.10,2013-02-10 01:02:00,
2013-02-10 01:17:00,38.1,37.0,29.69,NNE,12,4.0,-999.0,97,-99.99,,,0.01,0,weatherlink.com 1.10,2013-02-10 01:17:00,
2013-02-10 01:32:00,38.1,37.0,29.68,NNE,15,0.0,-999.0,97,-99.99,,,0.01,0,weatherlink.com 1.10,2013-02-10 01:32:00,
2013-02-10 01:47:00,38.0,37.0,29.67,NNE,13,0.0,-999.0,97,-99.99,,,0.02,0,weatherlink.com 1.10,2013-02-10 01:47:00,
2013-02-10 02:02:00,37.9,37.0,29.66,ENE,62,5.0,-999.0,97,-99.99,,,0.02,0,weatherlink.com 1.10,2013-02-10 02:02:00,
2013-02-10 02:17:00,37.9,37.0,29.65,WNW,284,4.0,-999.0,97,-99.99,,,0.02,0,weatherlink.com 1.10,2013-02-10 02:17:00,
2013-02-10 02:32:00,37.9,37.0,29.64,NNE,22,3.0,-999.0,97,-99.99,,,0.04,0,weatherlink.com 1.10,2013-02-10 02:32:00,
2013-02-10 02:47:00,37.8,37.0,29.63,NE,44,6.0,-999.0,98,-99.99,,,0.05,0,weatherlink.com 1.10,2013-02-10 02:47:00,
2013-02-10 03:02:00,37.6,37.0,29.62,NNE,32,5.0,-999.0,98,-99.99,,,0.06,0,weatherlink.com 1.10,2013-02-10 03:02:00,
2013-02-10 03:18:00,37.1,36.0,29.61,NE,41,4.0,-999.0,97,-99.99,,,0.07,0,weatherlink.com 1.10,2013-02-10 03:18:00,
2013-02-10 03:32:00,36.6,36.0,29.60,NNW,348,4.0,-999.0,97,-99.99,,,0.09,0,weatherlink.com 1.10,2013-02-10 03:32:00,
2013-02-10 03:47:00,36.3,36.0,29.59,NNE,30,8.0,-999.0,97,-99.99,,,0.09,0,weatherlink.com 1.10,2013-02-10 03:47:00,
2013-02-10 04:02:00,36.2,36.0,29.59,NE,39,3.0,-999.0,97,-99.99,,,0.09,0,weatherlink.com 1.10,2013-02-10 04:02:00,
2013-02-10 04:17:00,36.1,35.0,29.57,NE,45,7.0,-999.0,97,-99.99,,,0.09,0,weatherlink.com 1.10,2013-02-10 04:17:00,
2013-02-10 04:33:00,36.1,35.0,29.57,NNW,348,3.0,-999.0,97,-99.99,,,0.10,0,weatherlink.com 1.10,2013-02-10 04:33:00,
2013-02-10 04:48:00,36.1,36.0,29.56,NNE,24,3.0,-999.0,98,-99.99,,,0.10,0,weatherlink.com 1.10,2013-02-10 04:48:00,
2013-02-10 05:03:00,36.1,36.0,29.55,North,11,4.0,-999.0,98,-99.99,,,0.11,0,weatherlink.com 1.10,2013-02-10 05:03:00,
2013-02-10 05:18:00,36.0,35.0,29.54,NNE,32,6.0,-999.0,97,-99.99,,,0.12,0,weatherlink.com 1.10,2013-02-10 05:18:00,
2013-02-10 05:33:00,35.8,35.0,29.53,North,5,3.0,-999.0,97,-99.99,,,0.12,0,weatherlink.com 1.10,2013-02-10 05:33:00,
2013-02-10 05:48:00,35.6,35.0,29.53,NNW,332,2.0,-999.0,97,-99.99,,,0.13,0,weatherlink.com 1.10,2013-02-10 05:48:00,
2013-02-10 06:03:00,35.3,35.0,29.52,North,5,3.0,-999.0,97,-99.99,,,0.13,0,weatherlink.com 1.10,2013-02-10 06:03:00,
2013-02-10 06:18:00,34.8,34.0,29.51,North,5,7.0,-999.0,97,-99.99,,,0.13,0,weatherlink.com 1.10,2013-02-10 06:18:00,
2013-02-10 06:33:00,34.3,34.0,29.50,NNW,343,3.0,-999.0,97,-99.99,,,0.13,0,weatherlink.com 1.10,2013-02-10 06:33:00,
2013-02-10 06:48:00,34.0,33.0,29.50,NNW,332,3.0,-999.0,97,-99.99,,,0.13,0,weatherlink.com 1.10,2013-02-10 06:48:00,
2013-02-10 07:03:00,33.9,33.0,29.49,NNE,14,2.0,-999.0,97,-99.99,,,0.13,0,weatherlink.com 1.10,2013-02-10 07:03:00,
2013-02-10 07:18:00,33.9,33.0,29.48,NE,50,6.0,-999.0,97,-99.99,,,0.14,0,weatherlink.com 1.10,2013-02-10 07:18:00,
2013-02-10 07:33:00,33.9,33.0,29.48,NE,40,3.0,-999.0,97,-99.99,,,0.14,0,weatherlink.com 1.10,2013-02-10 07:33:00,
2013-02-10 07:48:00,33.9,33.0,29.47,NE,47,7.0,-999.0,97,-99.99,,,0.15,0,weatherlink.com 1.10,2013-02-10 07:48:00,
2013-02-10 08:03:00,34.0,33.0,29.47,North,355,3.0,-999.0,97,-99.99,,,0.15,0,weatherlink.com 1.10,2013-02-10 08:03:00,
2013-02-10 08:18:00,34.0,33.0,29.46,NNE,25,3.0,-999.0,97,-99.99,,,0.15,0,weatherlink.com 1.10,2013-02-10 08:18:00,
2013-02-10 08:33:00,34.1,33.0,29.45,NNE,24,6.0,-999.0,97,-99.99,,,0.16,5,weatherlink.com 1.10,2013-02-10 08:33:00,
2013-02-10 08:48:00,34.3,34.0,29.45,North,5,6.0,-999.0,98,-99.99,,,0.17,7,weatherlink.com 1.10,2013-02-10 08:48:00,
2013-02-10 09:04:00,34.4,34.0,29.44,NNE,26,6.0,-999.0,98,-99.99,,,0.17,11,weatherlink.com 1.10,2013-02-10 09:04:00,
2013-02-10 09:19:00,34.4,34.0,29.44,NNE,28,7.0,-999.0,98,-99.99,,,0.17,9,weatherlink.com 1.10,2013-02-10 09:19:00,
2013-02-10 09:33:00,34.4,34.0,29.43,NNW,338,3.0,-999.0,98,-99.99,,,0.18,9,weatherlink.com 1.10,2013-02-10 09:33:00,
2013-02-10 09:48:00,34.4,34.0,29.43,NNE,32,5.0,-999.0,98,-99.99,,,0.18,12,weatherlink.com 1.10,2013-02-10 09:48:00,
2013-02-10 10:03:00,34.2,34.0,29.43,North,5,3.0,-999.0,97,-99.99,,,0.19,16,weatherlink.com 1.10,2013-02-10 10:03:00,
2013-02-10 10:19:00,34.1,33.0,29.42,NNE,17,5.0,-999.0,97,-99.99,,,0.20,19,weatherlink.com 1.10,2013-02-10 10:19:00,
2013-02-10 10:34:00,34.0,33.0,29.41,NNE,25,9.0,-999.0,97,-99.99,,,0.20,21,weatherlink.com 1.10,2013-02-10 10:34:00,
2013-02-10 10:48:00,33.8,33.0,29.41,NE,36,5.0,-999.0,97,-99.99,,,0.20,23,weatherlink.com 1.10,2013-02-10 10:48:00,
2013-02-10 11:03:00,33.8,33.0,29.41,NE,40,4.0,-999.0,98,-99.99,,,0.20,21,weatherlink.com 1.10,2013-02-10 11:03:00,
2013-02-10 11:18:00,33.9,33.0,29.41,NNE,27,6.0,-999.0,98,-99.99,,,0.21,28,weatherlink.com 1.10,2013-02-10 11:18:00,
2013-02-10 11:34:00,34.0,34.0,29.40,NNE,17,2.0,-999.0,98,-99.99,,,0.21,30,weatherlink.com 1.10,2013-02-10 11:34:00,
2013-02-10 11:49:00,34.0,34.0,29.40,North,5,4.0,-999.0,98,-99.99,,,0.23,30,weatherlink.com 1.10,2013-02-10 11:49:00,
2013-02-10 12:04:00,34.2,34.0,29.39,NNE,30,4.0,-999.0,98,-99.99,,,0.24,32,weatherlink.com 1.10,2013-02-10 12:04:00,
2013-02-10 12:19:00,34.3,34.0,29.39,NNE,15,5.0,-999.0,98,-99.99,,,0.24,39,weatherlink.com 1.10,2013-02-10 12:19:00,
2013-02-10 12:34:00,34.1,33.0,29.39,NNE,13,5.0,-999.0,97,-99.99,,,0.25,37,weatherlink.com 1.10,2013-02-10 12:34:00,
2013-02-10 12:49:00,34.2,34.0,29.38,NE,37,4.0,-999.0,97,-99.99,,,0.26,37,weatherlink.com 1.10,2013-02-10 12:49:00,
2013-02-10 13:04:00,34.1,33.0,29.37,NNE,17,4.0,-999.0,97,-99.99,,,0.26,37,weatherlink.com 1.10,2013-02-10 13:04:00,
2013-02-10 13:19:00,34.0,33.0,29.37,ENE,62,2.0,-999.0,97,-99.99,,,0.27,35,weatherlink.com 1.10,2013-02-10 13:19:00,
2013-02-10 13:34:00,33.9,33.0,29.36,North,5,6.0,-999.0,97,-99.99,,,0.28,47,weatherlink.com 1.10,2013-02-10 13:34:00,
2013-02-10 13:49:00,33.9,33.0,29.36,NE,54,6.0,-999.0,98,-99.99,,,0.28,46,weatherlink.com 1.10,2013-02-10 13:49:00,
2013-02-10 14:04:00,33.9,33.0,29.36,North,355,3.0,-999.0,98,-99.99,,,0.28,44,weatherlink.com 1.10,2013-02-10 14:04:00,
2013-02-10 14:19:00,33.8,33.0,29.35,NNW,336,3.0,-999.0,98,-99.99,,,0.29,47,weatherlink.com 1.10,2013-02-10 14:19:00,
2013-02-10 14:34:00,33.9,33.0,29.35,NNE,22,5.0,-999.0,98,-99.99,,,0.29,46,weatherlink.com 1.10,2013-02-10 14:34:00,
2013-02-10 14:49:00,34.1,34.0,29.35,NNE,25,5.0,-999.0,98,-99.99,,,0.31,37,weatherlink.com 1.10,2013-02-10 14:49:00,
2013-02-10 15:04:00,34.2,34.0,29.34,NE,36,1.0,-999.0,98,-99.99,,,0.31,37,weatherlink.com 1.10,2013-02-10 15:04:00,
2013-02-10 15:19:00,34.8,34.0,29.34,NE,53,5.0,-999.0,98,-99.99,,,0.32,30,weatherlink.com 1.10,2013-02-10 15:19:00,
2013-02-10 15:34:00,35.1,35.0,29.34,ENE,71,7.0,-999.0,98,-99.99,,,0.33,32,weatherlink.com 1.10,2013-02-10 15:34:00,
2013-02-10 15:49:00,35.3,35.0,29.33,NNE,30,7.0,-999.0,98,-99.99,,,0.34,35,weatherlink.com 1.10,2013-02-10 15:49:00,
2013-02-10 16:04:00,35.6,35.0,29.33,NNE,19,2.0,-999.0,98,-99.99,,,0.35,32,weatherlink.com 1.10,2013-02-10 16:04:00,
2013-02-10 16:19:00,35.5,35.0,29.33,NNW,344,6.0,-999.0,98,-99.99,,,0.35,14,weatherlink.com 1.10,2013-02-10 16:19:00,
2013-02-10 16:34:00,35.4,35.0,29.33,North,360,7.0,-999.0,97,-99.99,,,0.35,9,weatherlink.com 1.10,2013-02-10 16:34:00,
2013-02-10 16:50:00,35.6,35.0,29.32,NNE,33,6.0,-999.0,98,-99.99,,,0.35,5,weatherlink.com 1.10,2013-02-10 16:50:00,
2013-02-10 17:05:00,35.7,35.0,29.32,NNE,27,7.0,-999.0,97,-99.99,,,0.35,0,weatherlink.com 1.10,2013-02-10 17:05:00,
2013-02-10 17:19:00,35.8,35.0,29.32,NNE,21,6.0,-999.0,97,-99.99,,,0.35,0,weatherlink.com 1.10,2013-02-10 17:19:00,
2013-02-10 17:34:00,35.9,35.0,29.33,North,360,4.0,-999.0,98,-99.99,,,0.36,0,weatherlink.com 1.10,2013-02-10 17:34:00,
2013-02-10 17:49:00,36.1,36.0,29.33,NNE,16,4.0,-999.0,98,-99.99,,,0.36,0,weatherlink.com 1.10,2013-02-10 17:49:00,
2013-02-10 18:04:00,36.3,36.0,29.33,NE,44,5.0,-999.0,97,-99.99,,,0.36,0,weatherlink.com 1.10,2013-02-10 18:04:00,
2013-02-10 18:19:00,36.4,36.0,29.32,NNE,19,8.0,-999.0,97,-99.99,,,0.37,0,weatherlink.com 1.10,2013-02-10 18:19:00,
2013-02-10 18:35:00,36.6,36.0,29.32,ENE,59,8.0,-999.0,97,-99.99,,,0.37,0,weatherlink.com 1.10,2013-02-10 18:35:00,
2013-02-10 18:50:00,36.7,36.0,29.32,NE,56,4.0,-999.0,97,-99.99,,,0.37,0,weatherlink.com 1.10,2013-02-10 18:50:00,
2013-02-10 19:05:00,36.9,36.0,29.32,NE,39,6.0,-999.0,97,-99.99,,,0.37,0,weatherlink.com 1.10,2013-02-10 19:05:00,
2013-02-10 19:19:00,37.0,36.0,29.32,NE,36,3.0,-999.0,97,-99.99,,,0.37,0,weatherlink.com 1.10,2013-02-10 19:19:00,
2013-02-10 19:34:00,37.2,37.0,29.32,NE,42,4.0,-999.0,97,-99.99,,,0.37,0,weatherlink.com 1.10,2013-02-10 19:34:00,
2013-02-10 19:49:00,37.3,36.0,29.32,NE,43,3.0,-999.0,96,-99.99,,,0.37,0,weatherlink.com 1.10,2013-02-10 19:49:00,
2013-02-10 20:04:00,37.4,36.0,29.32,NNE,28,3.0,-999.0,96,-99.99,,,0.37,0,weatherlink.com 1.10,2013-02-10 20:04:00,
2013-02-10 20:20:00,37.5,37.0,29.33,NE,36,5.0,-999.0,96,-99.99,,,0.37,0,weatherlink.com 1.10,2013-02-10 20:20:00,
2013-02-10 20:34:00,37.7,36.0,29.33,NNE,30,7.0,-999.0,95,-99.99,,,0.37,0,weatherlink.com 1.10,2013-02-10 20:34:00,
2013-02-10 20:50:00,37.8,37.0,29.33,NE,42,5.0,-999.0,95,-99.99,,,0.38,0,weatherlink.com 1.10,2013-02-10 20:50:00,
2013-02-10 21:04:00,37.8,37.0,29.34,ENE,65,6.0,-999.0,95,-99.99,,,0.38,0,weatherlink.com 1.10,2013-02-10 21:04:00,
2013-02-10 21:19:00,37.9,37.0,29.34,ENE,66,6.0,-999.0,95,-99.99,,,0.38,0,weatherlink.com 1.10,2013-02-10 21:19:00,
2013-02-10 21:35:00,38.0,37.0,29.35,East,88,8.0,-999.0,95,-99.99,,,0.38,0,weatherlink.com 1.10,2013-02-10 21:35:00,
2013-02-10 21:49:00,38.1,37.0,29.35,East,83,8.0,-999.0,94,-99.99,,,0.38,0,weatherlink.com 1.10,2013-02-10 21:49:00,
2013-02-10 22:04:00,38.1,37.0,29.36,NE,36,4.0,-999.0,94,-99.99,,,0.38,0,weatherlink.com 1.10,2013-02-10 22:04:00,
2013-02-10 22:19:00,38.3,37.0,29.36,NE,41,10.0,-999.0,94,-99.99,,,0.38,0,weatherlink.com 1.10,2013-02-10 22:19:00,
2013-02-10 22:34:00,38.3,37.0,29.36,NNE,30,7.0,-999.0,94,-99.99,,,0.38,0,weatherlink.com 1.10,2013-02-10 22:34:00,
2013-02-10 22:49:00,38.3,37.0,29.37,NNE,15,3.0,-999.0,94,-99.99,,,0.38,0,weatherlink.com 1.10,2013-02-10 22:49:00,
2013-02-10 23:04:00,38.3,37.0,29.37,North,355,0.0,-999.0,94,-99.99,,,0.38,0,weatherlink.com 1.10,2013-02-10 23:04:00,
2013-02-10 23:19:00,38.4,37.0,29.38,NE,43,5.0,-999.0,94,-99.99,,,0.38,0,weatherlink.com 1.10,2013-02-10 23:19:00,
2013-02-10 23:34:00,38.3,37.0,29.38,NE,34,5.0,-999.0,94,-99.99,,,0.38,0,weatherlink.com 1.10,2013-02-10 23:34:00,
2013-02-10 23:49:00,38.3,37.0,29.39,NNE,23,2.0,-999.0,94,-99.99,,,0.38,0,weatherlink.com 1.10,2013-02-10 23:49:00,